Weather reports worldwide

Advertisment
Bedford, United Kingdom (3560): temperature & dewpoint: 01.08.2020 02:00:00 - 07.08.2020 02:00:00 (BST)Bedford, United Kingdom (3560): temperature -20cm & temperature -100cm: 01.08.2020 02:00:00 - 07.08.2020 02:00:00 (BST)Bedford, United Kingdom (3560): wind speed & gusts: 01.08.2020 02:00:00 - 07.08.2020 02:00:00 (BST)Bedford, United Kingdom (3560): wind direction: 01.08.2020 02:00:00 - 07.08.2020 02:00:00 (BST)Bedford, United Kingdom (3560): reduced air pressure: 01.08.2020 02:00:00 - 07.08.2020 02:00:00 (BST)Bedford, United Kingdom (3560): visibility: 01.08.2020 02:00:00 - 07.08.2020 02:00:00 (BST)Bedford, United Kingdom (3560): precipitation: 01.08.2020 02:00:00 - 07.08.2020 02:00:00 (BST)
Date & Time tt [°C] td [°C] tt -20cm [°C] tt -100cm [°C] ff [km/h] ff [kn] fx [km/h] fx [kn] dd ppp [hPa] vv [km] rr [mm]
07.08.2020 02:00:00 - - - - - - - - - - - -
07.08.2020 01:00:00 17,3 15,3 - - 2 1 - - S 1018,4 50 0,0
07.08.2020 00:00:00 18,1 16,4 - - 2 1 - - SSE 1018,2 50 0,0
06.08.2020 23:00:00 18,3 15,9 - - 8 4 - - E 1018,1 45 0,0
06.08.2020 22:00:00 21,5 16,9 - - 5 3 - - W 1017,7 50 0,0
06.08.2020 21:00:00 22,6 16,9 - - 8 4 - - W 1017,3 45 0,0
06.08.2020 20:00:00 24,6 17,0 - - 5 3 - - SW 1017,0 50 0,0
06.08.2020 19:00:00 24,9 17,3 - - 9 5 - - WSW 1016,8 50 0,0
06.08.2020 18:00:00 25,1 17,6 - - 15 8 - - SSW 1016,8 50 0,0
06.08.2020 17:00:00 25,1 17,6 - - 18 10 - - S 1017,0 50 0,0
06.08.2020 16:00:00 24,2 17,3 - - 15 8 - - SSW 1017,2 50 0,0
06.08.2020 15:00:00 23,9 18,0 - - 16 9 - - SSW 1017,3 35 0,0
06.08.2020 14:00:00 23,3 17,8 - - 18 10 - - SSW 1017,2 50 0,0
06.08.2020 13:00:00 22,2 17,4 - - 16 9 - - S 1017,3 45 0,0
06.08.2020 12:00:00 21,7 17,4 - - 18 10 - - S 1017,2 50 0,0
06.08.2020 11:00:00 21,6 16,3 - - 15 8 - - SW 1016,9 45 0,0
06.08.2020 10:00:00 20,4 16,0 18,0 15,7 11 6 - - SW 1016,9 50 0,0
06.08.2020 09:00:00 19,5 16,0 - - 9 5 - - SSW 1016,8 50 0,0
06.08.2020 08:00:00 18,5 16,6 - - 9 5 - - SSW 1016,4 50 0,0
06.08.2020 07:00:00 17,8 16,4 - - 9 5 - - S 1015,9 50 0,0
06.08.2020 06:00:00 17,5 16,1 - - 8 4 - - SSW 1015,3 50 0,0
06.08.2020 05:00:00 17,7 16,0 - - 11 6 - - SW 1014,9 50 0,0
06.08.2020 04:00:00 17,0 15,8 - - 9 5 - - SSW 1014,5 50 0,0
06.08.2020 03:00:00 17,9 15,8 - - 13 7 - - SSW 1014,1 50 0,0
06.08.2020 02:00:00 17,8 15,8 - - 11 6 - - SSW 1014,2 50 0,0
06.08.2020 01:00:00 17,8 15,6 - - 13 7 - - SW 1013,9 50 0,0
06.08.2020 00:00:00 17,6 15,3 - - 13 7 - - SSW 1013,6 50 0,0
05.08.2020 23:00:00 17,8 15,2 - - 18 10 - - SW 1012,9 50 0,0
05.08.2020 22:00:00 18,7 15,1 - - 21 11 - - SSW 1012,8 50 0,0
05.08.2020 21:00:00 19,7 14,4 - - 24 13 - - SW 1012,5 50 0,0
05.08.2020 20:00:00 20,6 14,3 - - 21 11 - - SW 1011,5 40 0,0
05.08.2020 19:00:00 21,3 13,9 - - 26 14 - - SW 1011,4 50 0,0
05.08.2020 18:00:00 21,3 13,7 - - 28 15 48 26 SSW 1011,2 30 0,0
05.08.2020 17:00:00 22,8 11,0 - - 26 14 - - SW 1010,8 50 0,0
05.08.2020 16:00:00 23,6 10,8 - - 26 14 48 26 SW 1010,5 35 0,0
05.08.2020 15:00:00 23,5 9,5 - - 28 15 50 27 SSW 1010,6 50 0,0
05.08.2020 14:00:00 24,5 9,5 - - 28 15 46 25 SW 1010,4 45 0,0
05.08.2020 13:00:00 23,5 12,0 - - 28 15 46 25 SSW 1010,9 45 0,0
05.08.2020 12:00:00 23,0 14,6 - - 21 11 - - SW 1010,9 40 0,0
05.08.2020 11:00:00 19,1 15,0 - - 24 13 - - SSW 1011,5 50 0,0
05.08.2020 10:00:00 18,6 14,5 17,7 15,7 22 12 - - SSW 1011,5 50 0,0
05.08.2020 09:00:00 19,6 14,5 - - 29 16 50 27 SSW 1011,3 35 0,0
05.08.2020 08:00:00 18,1 14,6 - - 22 12 - - SSW 1011,4 50 0,0
05.08.2020 07:00:00 17,1 14,1 - - 21 11 - - SSW 1011,3 50 0,0
05.08.2020 06:00:00 16,5 13,6 - - 18 10 - - SSW 1010,9 50 0,0
05.08.2020 05:00:00 16,4 13,2 - - 18 10 - - SSW 1010,9 50 0,0
05.08.2020 04:00:00 16,3 12,9 - - 21 11 - - SSW 1010,9 50 0,0
05.08.2020 03:00:00 16,1 12,7 - - 18 10 - - SSW 1011,1 50 0,0
05.08.2020 02:00:00 16,3 12,5 - - 21 11 - - SW 1011,5 50 0,0
05.08.2020 01:00:00 16,5 12,2 - - 24 13 - - SW 1011,4 50 0,0
05.08.2020 00:00:00 16,8 12,2 - - 21 11 - - SW 1011,5 50 0,0
04.08.2020 23:00:00 17,8 12,0 - - 21 11 - - SSW 1011,8 50 0,0
04.08.2020 22:00:00 18,4 12,2 - - 22 12 - - SW 1012,2 50 0,0
04.08.2020 21:00:00 19,4 11,4 - - 24 13 - - SSW 1012,1 50 0,0
04.08.2020 20:00:00 20,3 10,4 - - 22 12 - - SW 1011,9 50 0,0
04.08.2020 19:00:00 20,2 8,8 - - 22 12 - - SW 1012,3 50 0,0
04.08.2020 18:00:00 20,8 8,5 - - 24 13 - - SW 1012,6 50 0,0
04.08.2020 17:00:00 20,8 7,8 - - 22 12 - - SSW 1012,9 30 0,0
04.08.2020 16:00:00 20,3 7,9 - - 22 12 - - SSW 1013,5 35 0,0
04.08.2020 15:00:00 20,1 6,4 - - 22 12 - - SW 1014,3 16 0,0
04.08.2020 14:00:00 18,7 6,6 - - 21 11 - - SW 1015,0 40 0,0
04.08.2020 13:00:00 17,3 5,8 - - 21 11 - - SW 1015,8 50 0,0
04.08.2020 12:00:00 17,5 6,7 - - 18 10 - - SW 1016,1 45 0,0
04.08.2020 11:00:00 18,3 7,4 - - 18 10 - - SW 1016,0 50 0,0
04.08.2020 10:00:00 18,0 8,8 17,9 15,7 16 9 - - SSW 1016,3 50 0,0
04.08.2020 09:00:00 16,3 10,3 - - 11 6 - - S 1016,6 35 0,0
04.08.2020 08:00:00 13,9 8,4 - - 8 4 - - SSE 1017,0 50 0,0
04.08.2020 07:00:00 10,9 9,1 - - 2 1 - - S 1016,9 50 0,0
04.08.2020 06:00:00 8,1 6,6 - - 2 1 - - WSW 1017,0 40 0,0
04.08.2020 05:00:00 8,9 6,4 - - 2 1 - - WNW 1017,3 45 0,0
04.08.2020 04:00:00 11,0 6,0 - - 2 1 - - NW 1017,4 50 0,0
04.08.2020 03:00:00 12,8 6,7 - - 8 4 - - NNW 1017,5 50 0,0
04.08.2020 02:00:00 12,3 6,6 - - 5 3 - - NNW 1017,9 50 0,0
04.08.2020 01:00:00 11,0 5,9 - - 0 0 - - N 1018,2 40 0,0
04.08.2020 00:00:00 13,0 7,2 - - 2 1 - - N 1018,1 50 0,0
03.08.2020 23:00:00 13,1 6,6 - - 5 3 - - NW 1017,8 50 0,0
03.08.2020 22:00:00 15,0 7,1 - - 8 4 - - N 1017,3 21 0,0
03.08.2020 21:00:00 16,1 7,1 - - 8 4 - - NNW 1016,9 50 0,0
03.08.2020 20:00:00 18,5 6,3 - - 15 8 - - NNW 1016,4 50 0,0
03.08.2020 19:00:00 18,6 7,1 - - 15 8 - - NNW 1015,9 50 0,0
03.08.2020 18:00:00 19,9 7,5 - - 18 10 - - NNW 1015,7 45 0,0
03.08.2020 17:00:00 20,3 7,7 - - 16 9 - - NNW 1015,6 40 0,0
03.08.2020 16:00:00 19,1 7,2 - - 16 9 - - NW 1015,6 50 0,0
03.08.2020 15:00:00 20,1 6,6 - - 16 9 - - NNW 1015,4 50 0,0
03.08.2020 14:00:00 20,1 6,6 - - 16 9 - - NNW 1015,5 50 0,0
03.08.2020 13:00:00 19,4 8,1 - - 15 8 - - NW 1015,9 50 0,0
03.08.2020 12:00:00 18,5 7,9 - - 13 7 - - NW 1015,9 50 0,0
03.08.2020 11:00:00 18,4 9,8 - - 11 6 - - NW 1015,8 45 0,0
03.08.2020 10:00:00 16,3 8,7 18,4 15,7 15 8 - - WNW 1016,2 50 0,0
03.08.2020 09:00:00 15,9 10,2 - - 15 8 - - NW 1016,1 50 0,0
03.08.2020 08:00:00 14,4 9,8 - - 11 6 - - NW 1016,0 50 0,0
03.08.2020 07:00:00 12,6 8,6 - - 9 5 - - NW 1015,9 50 0,0
03.08.2020 06:00:00 12,0 8,1 - - 11 6 - - NW 1015,7 50 0,0
03.08.2020 05:00:00 12,7 8,2 - - 9 5 - - NW 1015,3 50 0,0
03.08.2020 04:00:00 13,6 8,5 - - 15 8 - - NNW 1015,3 50 0,0
03.08.2020 03:00:00 14,1 8,4 - - 8 4 - - NNW 1015,5 50 0,0
03.08.2020 02:00:00 14,9 8,6 - - 13 7 - - NNW 1015,4 50 0,0
03.08.2020 01:00:00 15,2 9,1 - - 11 6 - - NNW 1015,6 50 0,0
03.08.2020 00:00:00 15,9 9,5 - - 9 5 - - N 1015,5 50 0,0
02.08.2020 23:00:00 17,0 9,6 - - 13 7 - - N 1015,3 50 0,0
02.08.2020 22:00:00 17,9 9,9 - - 9 5 - - NNW 1015,1 50 0,0
02.08.2020 21:00:00 19,1 8,5 - - 13 7 - - NNW 1014,6 50 0,0
02.08.2020 20:00:00 20,1 7,5 - - 8 4 - - W 1014,3 50 0,0
02.08.2020 19:00:00 21,5 7,0 - - 15 8 - - W 1014,1 50 0,0
02.08.2020 18:00:00 21,4 7,3 - - 18 10 - - W 1014,3 50 0,0
02.08.2020 17:00:00 22,5 8,3 - - 21 11 - - W 1014,5 40 0,0
02.08.2020 16:00:00 22,4 9,3 - - 16 9 - - WSW 1014,7 40 0,0
02.08.2020 15:00:00 21,0 8,1 - - 21 11 - - W 1015,1 50 0,0
02.08.2020 14:00:00 20,3 9,1 - - 22 12 - - W 1015,7 45 0,0
02.08.2020 13:00:00 19,9 10,1 - - 18 10 - - W 1015,9 50 0,0
02.08.2020 12:00:00 19,0 10,8 - - 16 9 - - W 1016,3 45 0,0
02.08.2020 11:00:00 18,1 11,3 - - 13 7 - - WSW 1016,4 45 0,0
02.08.2020 10:00:00 17,3 11,0 18,7 15,7 15 8 - - W 1016,5 40 0,0
02.08.2020 09:00:00 15,2 10,7 - - 15 8 - - W 1016,7 45 0,0
02.08.2020 08:00:00 13,1 10,2 - - 15 8 - - WSW 1016,8 35 0,0
02.08.2020 07:00:00 11,8 9,7 - - 9 5 - - SW 1016,6 45 0,0
02.08.2020 06:00:00 10,5 8,8 - - 9 5 - - SW 1016,6 50 0,0
02.08.2020 05:00:00 11,0 8,5 - - 9 5 - - WSW 1016,4 50 0,0
02.08.2020 04:00:00 11,2 8,5 - - 9 5 - - WSW 1016,2 50 0,0
02.08.2020 03:00:00 11,8 8,9 - - 9 5 - - WSW 1016,2 50 0,0
02.08.2020 02:00:00 12,8 9,2 - - 9 5 - - WSW 1016,3 50 0,0
02.08.2020 01:00:00 14,9 9,7 - - 9 5 - - WSW 1016,2 50 0,0
02.08.2020 00:00:00 16,6 9,8 - - 13 7 - - W 1016,1 50 0,0
01.08.2020 23:00:00 16,9 11,5 - - 15 8 - - WNW 1015,8 50 0,0
01.08.2020 22:00:00 18,1 12,7 - - 13 7 - - NW 1015,5 50 0,0
01.08.2020 21:00:00 18,6 13,4 - - 13 7 - - NW 1015,2 50 0,0
01.08.2020 20:00:00 20,5 13,4 - - 22 12 - - WNW 1014,5 50 0,0
01.08.2020 19:00:00 21,6 12,5 - - 21 11 - - W 1014,1 50 0,0
01.08.2020 18:00:00 22,6 12,1 - - 16 9 - - WSW 1014,0 50 0,0
01.08.2020 17:00:00 23,7 12,3 - - 18 10 - - WSW 1013,9 45 0,0
01.08.2020 16:00:00 22,7 13,0 - - 18 10 - - WSW 1014,4 27 0,0
01.08.2020 15:00:00 22,9 12,2 - - 15 8 - - WSW 1014,3 40 0,0
01.08.2020 14:00:00 23,4 13,6 - - 16 9 - - W 1014,4 50 0,0
01.08.2020 13:00:00 20,9 13,6 - - 16 9 - - WNW 1014,6 50 0,0
01.08.2020 12:00:00 22,3 15,1 - - 16 9 - - WSW 1014,6 35 0,0
01.08.2020 11:00:00 19,7 14,1 - - 16 9 - - WSW 1014,9 35 0,0
01.08.2020 10:00:00 19,9 14,4 18,7 15,5 16 9 - - WSW 1014,5 40 0,0
01.08.2020 09:00:00 18,2 14,1 - - 13 7 - - WSW 1014,3 30 0,0
01.08.2020 08:00:00 16,8 13,9 - - 13 7 - - SW 1014,2 35 0,0
01.08.2020 07:00:00 15,2 13,2 - - 9 5 - - WSW 1014,2 35 0,0
01.08.2020 06:00:00 14,2 12,4 - - 8 4 - - WSW 1014,0 50 0,0
01.08.2020 05:00:00 15,1 12,5 - - 11 6 - - W 1013,5 40 0,0
01.08.2020 04:00:00 16,7 13,0 - - 16 9 - - W 1013,1 50 0,0
01.08.2020 03:00:00 19,3 16,9 - - 13 7 - - W 1012,3 50 0,0
01.08.2020 02:00:00 20,2 17,4 - - 11 6 - - WSW 1012,1 50 0,0

tt = temperature
td = dewpoint
tt -20cm = temperature -20cm
tt -100cm = temperature -100cm
ff = wind speed
fx = gusts
dd = wind direction
ppp = reduced air pressure
vv = visibility
rr = precipitation

Next stations